This is the latest recevied weather packets stored in our database for station/object N5ATR. If no packets are shown the sender has not sent any weather packets the latest 10 day(s).
| Time | Temp. | Humidity | Pressure | Rain* | Wind** | Luminosity | Snow |
|---|---|---|---|---|---|---|---|
| 1777491243 | 18.89° C | 14% | 1016.4 hPa | 0 mm | - | 784 W/m² | - |
| 1777490939 | 18.33° C | 13% | 1016.5 hPa | 0 mm | - | 787 W/m² | - |
| 1777490635 | 18.33° C | 14% | 1016.2 hPa | 0 mm | - | 790 W/m² | - |
| 1777490330 | 18.33° C | 13% | 1016.6 hPa | 0 mm | - | 791 W/m² | - |
| 1777490029 | 17.78° C | 14% | 1016.5 hPa | 0 mm | - | 793 W/m² | - |
| 1777489726 | 18.33° C | 13% | 1016.5 hPa | 0 mm | - | 793 W/m² | - |
| 1777489423 | 18.33° C | 14% | 1016.5 hPa | 0 mm | - | 796 W/m² | - |
| 1777489120 | 18.33° C | 14% | 1016.7 hPa | 0 mm | - | 797 W/m² | - |
| 1777488817 | 17.78° C | 13% | 1017.1 hPa | 0 mm | - | 796 W/m² | - |
| 1777488515 | 17.78° C | 13% | 1016.9 hPa | 0 mm | - | 798 W/m² | - |
| 1777488212 | 17.78° C | 13% | 1016.9 hPa | 0 mm | - | 796 W/m² | - |
| 1777487910 | 17.22° C | 13% | 1017 hPa | 0 mm | - | 794 W/m² | - |
| 1777487608 | 17.78° C | 13% | 1017.2 hPa | 0 mm | - | 793 W/m² | - |
| 1777487305 | 17.22° C | 14% | 1017.1 hPa | 0 mm | - | 793 W/m² | - |
| 1777487002 | 17.78° C | 14% | 1017.3 hPa | 0 mm | - | 790 W/m² | - |
| 1777486698 | 17.22° C | 13% | 1017.3 hPa | 0 mm | - | 786 W/m² | - |
| 1777486396 | 17.78° C | 14% | 1017.2 hPa | 0 mm | - | 784 W/m² | - |
| 1777486093 | 17.22° C | 14% | 1017.1 hPa | 0 mm | - | 780 W/m² | - |
| 1777485789 | 16.67° C | 14% | 1017.6 hPa | 0 mm | - | 775 W/m² | - |
| 1777485485 | 17.22° C | 14% | 1017.2 hPa | 0 mm | - | 771 W/m² | - |
| 1777485181 | 16.67° C | 15% | 1017.5 hPa | 0 mm | - | 766 W/m² | - |
| 1777484878 | 16.67° C | 14% | 1017.6 hPa | 0 mm | - | 762 W/m² | - |
| 1777484575 | 16.67° C | 14% | 1017.6 hPa | 0 mm | - | 756 W/m² | - |
| 1777484271 | 16.11° C | 14% | 1017.8 hPa | 0 mm | - | 750 W/m² | - |
| 1777483968 | 16.67° C | 14% | 1018 hPa | 0 mm | - | 740 W/m² | - |
* Rain latest hour (hover to see other rain measurements)
** Current wind speed in m/s (hover to see current wind gust speed)